Content
SEND FEEDBACK

Daily
Averages
Monthly
Summary
Thailand

PHUKET, THAILAND


Home > Asia > Thailand
Elevation: 33 feet     Latitude: 08 07N     Longitude: 098 19E

WEATHER
 
SELECT A DAY
Number of Records: 228,020;   Date Range: 7/1/96 - 9/18/14
 
SHARE

PRINT THIS DATA

[ ← Previous Day ]
WEATHER ALMANAC - MARCH 5, 2013
[ Next Day → ]
[ °C ]   °F
Weather ElementAverageHighLow
Temperature84.4 °F93.2 °F (2:30 pm)77 °F (6:00 am)
Dewpoint70.7 °F76 °F (7:00 pm)68 °F (2:30 pm)
Humidity63.9 %83 % (6:30 am)44 % (2:30 pm)
Barometer29.90 in29.98 in (9:00 am)29.80 in (4:00 pm)
Wind Speed7.3 mph16.1 mph (12:00 pm)
Weather ElementAverage
Visibility5.5 mi
Wind DirectionENE (66.1 °)

Weather ElementTotal
Precipitation---
Cooling Degree Days20.1 (Base 65)
Growing Degree Days35.1 (Base 50)
Averaged from 50 records on March 5, 2013
WEATHER CONDITIONS BREAKOUT
WIND DIRECTION BREAKOUT
WEATHER BY HOUR - MARCH 5, 2013
[ °C ]   °F
Local TimeTemperatureDewpointHumidityBarometerVisibilityWind DirectionWind SpeedGust SpeedPrecipitationEventsConditions
12:30 AM82.4 °F69.8 °F66 %29.95 in5.6 miEast (100°)12.7 mphScattered Clouds
1:00 AM82.0 °F71.0 °F62 %29.90 in6.0 miEast (90°)5.8 mphScattered Clouds
1:00 AM82.4 °F69.8 °F66 %29.92 in5.6 miEast (100°)10.4 mphScattered Clouds
1:30 AM80.6 °F69.8 °F70 %29.92 in5.6 miVariable2.3 mphScattered Clouds
2:00 AM80.6 °F69.8 °F70 %29.92 in5.6 miENE (60°)4.6 mphScattered Clouds
2:30 AM80.6 °F69.8 °F70 %29.92 in5.6 miEast (80°)4.6 mphScattered Clouds
3:00 AM78.8 °F71.6 °F78 %29.89 in5.6 miEast (80°)4.6 mphScattered Clouds
3:30 AM80.6 °F71.6 °F74 %29.89 in5.6 miENE (60°)3.5 mphScattered Clouds
4:00 AM78.8 °F69.8 °F74 %29.89 in5.6 miVariable2.3 mphScattered Clouds
4:30 AM78.8 °F69.8 °F74 %29.89 in5.6 miVariable1.2 mphScattered Clouds
5:00 AM78.8 °F69.8 °F74 %29.89 in5.6 miENE (60°)3.5 mphScattered Clouds
5:30 AM78.8 °F69.8 °F74 %29.89 in5.6 miVariable2.3 mphScattered Clouds
6:00 AM77.0 °F69.8 °F78 %29.92 in5.6 miVariable2.3 mphScattered Clouds
6:30 AM77.0 °F71.6 °F83 %29.92 in5.0 miCalmMostly Cloudy
7:00 AM79.0 °F74.0 °F79 %29.90 in6.0 miCalmScattered Clouds
7:00 AM78.8 °F71.6 °F78 %29.92 in5.6 miCalmScattered Clouds
7:30 AM80.6 °F71.6 °F74 %29.92 in5.6 miCalmScattered Clouds
8:00 AM82.4 °F71.6 °F70 %29.95 in5.6 miVariable2.3 mphMostly Cloudy
8:30 AM84.2 °F73.4 °F70 %29.95 in5.6 miNNE (20°)4.6 mphMostly Cloudy
9:00 AM84.2 °F71.6 °F66 %29.98 in5.6 miENE (60°)5.8 mphMostly Cloudy
9:30 AM86.0 °F71.6 °F62 %29.98 in5.6 miENE (60°)8.1 mphScattered Clouds
10:00 AM86.0 °F71.6 °F62 %29.98 inNorthScattered Clouds
10:30 AM87.8 °F71.6 °F58 %29.98 in5.6 miEast (90°)13.8 mphScattered Clouds
11:00 AM87.8 °F71.6 °F58 %29.95 in5.6 miEast (80°)11.5 mphMostly Cloudy
11:30 AM89.6 °F69.8 °F52 %29.95 in5.6 miEast (100°)15.0 mphMostly Cloudy
12:00 PM89.6 °F69.8 °F52 %29.92 in5.6 miEast (100°)16.1 mphMostly Cloudy
12:30 PM89.6 °F69.8 °F52 %29.92 in5.6 miEast (90°)11.5 mphMostly Cloudy
1:00 PM91.0 °F72.0 °F45 %29.89 in6.0 miENE (70°)4.6 mphMist
1:00 PM91.4 °F69.8 °F49 %29.89 in5.6 miEast (80°)15.0 mphMostly Cloudy
1:30 PM89.6 °F69.8 °F52 %29.86 in5.6 miEast (100°)13.8 mphMostly Cloudy
2:00 PM91.4 °F69.8 °F49 %29.86 in5.6 miENE (70°)12.7 mphScattered Clouds
2:30 PM93.2 °F68.0 °F44 %29.86 in5.6 miEast (80°)15.0 mphMostly Cloudy
3:00 PM93.2 °F68.0 °F44 %29.83 in5.6 miEast (90°)12.7 mphMostly Cloudy
3:30 PM91.4 °F68.0 °F46 %29.83 in5.0 miENE (70°)6.9 mphMostly Cloudy
4:00 PM89.6 °F69.8 °F52 %29.80 in5.0 miEast (80°)5.8 mphMostly Cloudy
4:30 PM89.6 °F68.0 °F49 %29.80 in5.0 miEast (90°)9.2 mphMostly Cloudy
5:00 PM89.6 °F71.6 °F55 %29.83 in5.0 miNNE (20°)9.2 mphMostly Cloudy
5:30 PM84.2 °F71.6 °F66 %29.83 in3.1 miESE (120°)12.7 mphRainRain
6:00 PM86.0 °F73.4 °F66 %29.83 in4.3 miESE (120°)5.8 mphMostly Cloudy
6:30 PM84.2 °F71.6 °F66 %29.83 in4.3 miVariable2.3 mphMostly Cloudy
7:00 PM82.0 °F76.0 °F78 %29.82 in5.0 miEast (100°)2.3 mphMist
7:00 PM82.4 °F71.6 °F70 %29.86 in4.3 miSE (130°)4.6 mphMostly Cloudy
7:30 PM84.2 °F69.8 °F62 %29.86 in4.3 miESE (120°)4.6 mphMostly Cloudy
8:30 PM82.4 °F71.6 °F70 %29.89 in6.2 miEast (90°)5.8 mphScattered Clouds
9:00 PM84.2 °F69.8 °F62 %29.92 in6.2 miESE (110°)8.1 mphScattered Clouds
9:30 PM84.2 °F69.8 °F62 %29.92 in6.2 miEast (90°)6.9 mphScattered Clouds
10:00 PM84.2 °F69.8 °F62 %29.92 in6.2 miEast (90°)10.4 mphScattered Clouds
10:30 PM84.2 °F69.8 °F62 %29.92 in6.2 miEast (90°)11.5 mphMostly Cloudy
11:00 PM84.2 °F71.6 °F66 %29.92 in6.2 miEast (100°)12.7 mphMostly Cloudy
11:30 PM82.4 °F71.6 °F70 %29.92 in6.2 miEast (100°)15.0 mphMostly Cloudy
Hourly data recorded from VTSP, located miles away from Phuket, Thailand







STORIES FROM OUR PARTNERS